CUTE-1 (CO-55) 1 27844U 03031E 26093.50286751 .00000567 00000+0 26456-3 0 9999 2 27844 98.6770 102.9944 0010387 47.9217 312.2844 14.24288225181048 CUBESAT XI-IV (CO-57) 1 27848U 03031J 26093.94602893 .00000464 00000+0 22289-3 0 9996 2 27848 98.6802 103.2044 0010511 63.1709 297.0543 14.23580366180818 CUBESAT XI-V 1 28895U 05043F 26093.92840076 .00003380 00000+0 54043-3 0 9992 2 28895 98.2882 248.0380 0015323 82.7657 277.5291 14.72431745 90825 CUTE-1.7+APD II (CO-65) 1 32785U 08021C 26094.25070638 .00009772 00000+0 62586-3 0 9992 2 32785 97.8239 74.1938 0007116 283.3320 76.7114 15.08746428974048 CANX-2 1 32790U 08021H 26093.90668435 .00008238 00000+0 58313-3 0 9996 2 32790 97.8581 72.2955 0008937 300.2164 59.8176 15.05076579973633 SEEDS II (CO-66) 1 32791U 08021J 26094.23743945 .00032687 00000+0 11161-2 0 9998 2 32791 97.7528 88.7558 0002917 161.1611 198.9737 15.30245025975977 SWISSCUBE 1 35932U 09051B 26094.27417133 .00002034 00000+0 41221-3 0 9997 2 35932 98.4078 0.8689 0008097 83.1361 277.0761 14.62335375878357 BEESAT-1 1 35933U 09051C 26094.17725522 .00001677 00000+0 34725-3 0 9994 2 35933 98.4009 0.5587 0006535 94.9229 265.2718 14.61596567878378 ITUPSAT1 1 35935U 09051E 26094.24063622 .00001541 00000+0 32888-3 0 9998 2 35935 98.4094 359.8921 0008644 104.9075 255.3082 14.60326440877946 TISAT 1 1 36799U 10035E 26093.76936484 .00035947 00000+0 12789-2 0 9996 2 36799 98.0674 33.9149 0004140 120.3655 239.7993 15.28881560856320 AEROCUBE 4.5A 1 38767U 12048K 26093.90778054 .00184182 00000+0 15960-2 0 9992 2 38767 64.6343 291.9358 0035004 209.3343 150.5842 15.67525821360930 STRAND-1 1 39090U 13009E 26093.97733624 .00000593 00000+0 21376-3 0 9993 2 39090 98.3906 276.0425 0009856 93.1051 267.1264 14.37118190686408 BRITE-AUSTRIA 1 39091U 13009F 26094.02819480 .00000377 00000+0 14299-3 0 9992 2 39091 98.3975 275.3041 0011383 100.8326 259.4142 14.36511780686400 NEE-01 PEGASO 1 39151U 13018B 26093.82965833 .00005522 00000+0 53212-3 0 9995 2 39151 98.1108 235.5903 0013596 53.0789 307.1673 14.93292166699601 POPACS 2 1 39269U 13055E 26093.78513077 .00030276 00000+0 51705-3 0 9999 2 39269 80.9927 229.2276 0425792 72.6674 292.0642 14.89187326652138 POPACS 3 1 39270U 13055F 26093.99777175 .00010721 00000+0 26081-3 0 9997 2 39270 81.0009 309.5478 0556512 295.7617 58.7150 14.54566066627765 ZACUBE-1 (TSHEPISOSAT) 1 39417U 13066B 26093.87178787 .00009224 00000+0 71955-3 0 9999 2 39417 97.8146 55.8184 0044929 138.2329 222.2338 15.00579357669586 WNISAT-1 1 39423U 13066H 26094.16256692 .00002270 00000+0 41855-3 0 9991 2 39423 97.7092 248.6195 0164741 105.0125 256.9374 14.57964134655948 TRITON-1 1 39427U 13066M 26094.27324184 .00004542 00000+0 54705-3 0 9991 2 39427 97.8287 5.7734 0091883 114.7180 246.3631 14.81348080663147 GOMX-1 1 39430U 13066Q 26094.29688122 .00002368 00000+0 36251-3 0 9992 2 39430 97.6537 299.4043 0128152 315.3293 43.7644 14.69201113659066 CUBEBUG-2 (LO-74) 1 39440U 13066AA 26094.29759255 .00007490 00000+0 69927-3 0 9996 2 39440 97.8855 43.0224 0056556 272.6349 86.8397 14.93261828665966 NEE-02 KRYSAOR 1 39441U 13066AB 26093.75932868 .00005266 00000+0 58107-3 0 9997 2 39441 97.8853 33.5424 0065393 314.8360 44.7552 14.86341961665147 FUNCUBE-1 (AO-73) 1 39444U 13066AE 26094.18528427 .00016448 00000+0 10412-2 0 9990 2 39444 97.8232 64.1714 0039071 95.2943 265.2744 15.08416857668502 UWE-3 1 39446U 13066AG 26093.80688810 .00007966 00000+0 69038-3 0 9997 2 39446 97.8634 49.4472 0048895 206.0500 153.8259 14.96445183666457 BRITE-CA1 (TORONTO) 1 40020U 14033L 26094.24738424 .00002576 00000+0 39331-3 0 9993 2 40020 97.9616 224.5943 0079506 152.8274 207.7128 14.72552082631330 DUCHIFAT-1 1 40021U 14033M 26094.17646504 .00103811 00000+0 16253-2 0 9994 2 40021 98.0575 143.6688 0003162 348.3303 11.7874 15.53368895644224 NANOSATC-BR1 1 40024U 14033Q 26094.05395186 .00032835 00000+0 11589-2 0 9995 2 40024 98.0799 119.9862 0005366 89.9225 270.2628 15.29159913642649 QB50P1 1 40025U 14033R 26093.58092979 .00015793 00000+0 79934-3 0 9990 2 40025 98.0999 99.5565 0010578 116.9605 243.2708 15.17064692641711 QB50P2 1 40032U 14033Y 26093.91193701 .00016029 00000+0 88055-3 0 9997 2 40032 98.0752 86.2331 0009344 73.3491 286.8764 15.14169915641422 PERSEUS-M2 1 40037U 14033AD 26094.25782410 .00004529 00000+0 41620-3 0 9990 2 40037 97.9902 43.3368 0011878 178.3898 181.7363 14.95278614639732 PERSEUS-M1 1 40039U 14033AF 26093.76792249 .00003783 00000+0 34766-3 0 9992 2 40039 97.9585 36.7207 0011608 177.8720 182.2552 14.95376143639516 POLYITAN-1 1 40042U 14033AJ 26093.59045682 .00033419 00000+0 11238-2 0 9996 2 40042 98.1014 112.9263 0008800 59.7421 300.4688 15.30706629642171 TIGRISAT 1 40043U 14033AK 26093.65929571 .00003783 00000+0 44220-3 0 9991 2 40043 97.7721 245.4356 0048536 320.3151 39.4516 14.84855099634561 AEROCUBE 6A 1 40045U 14033AM 26094.19648508 .00013008 00000+0 11109-2 0 9991 2 40045 97.7156 262.0039 0038063 262.4352 97.2546 14.97239162635546 AEROCUBE 6B 1 40046U 14033AN 26094.26957984 .00013924 00000+0 11475-2 0 9994 2 40046 97.7137 261.7166 0036345 252.6187 107.1060 14.98645730635681 CANX-4 1 40055U 14034C 26094.11292958 .00001836 00000+0 24337-3 0 9993 2 40055 98.3231 326.6702 0011556 247.4361 112.5628 14.81130403633566 CANX-5 1 40056U 14034D 26094.17977040 .00001792 00000+0 23762-3 0 9994 2 40056 98.3232 326.7788 0011569 247.4354 112.5633 14.81147246624388 UKUBE-1 1 40074U 14037F 26094.22728868 .00016609 00000+0 95992-3 0 9992 2 40074 98.4247 89.8032 0003155 76.6274 283.5305 15.12381447637375 BRITE-PL2 (HEWELIUSZ) 1 40119U 14049B 26094.25356084 .00004735 00000+0 44524-3 0 9997 2 40119 97.9006 205.7361 0013835 1.3674 358.7582 14.94321467630405 AEROCUBE 5C 1 40965U 15058B 26094.26779320 .00004242 00000+0 37884-3 0 9994 2 40965 64.7659 132.4722 0129694 92.3205 269.2764 14.91033874354633 AEROCUBE 7 1 40966U 15058C 26094.27057638 .00006327 00000+0 51190-3 0 9999 2 40966 64.7606 116.2305 0119598 91.2079 270.2739 14.95131042354906 FOX-1A (AO-85) 1 40967U 15058D 26094.22390213 .00004322 00000+0 39200-3 0 9995 2 40967 64.7745 148.7576 0128318 85.6580 275.9182 14.90539097102547 SINOD-D 1 1 40968U 15058E 26094.25711580 .00006317 00000+0 51212-3 0 9996 2 40968 64.7737 130.3215 0116789 82.6624 278.7746 14.95299335105601 SNAP-3 ALICE 1 40970U 15058G 26094.13399098 .00144926 00000+0 26623-2 0 9998 2 40970 64.7566 357.2974 0033326 59.9653 300.4786 15.47890104105381 LMRST-SAT 1 40971U 15058H 26094.29487313 .00004272 00000+0 38961-3 0 9992 2 40971 64.7749 144.7376 0130311 87.6552 273.9473 14.90169835102547 SNAP-3 EDDIE 1 40972U 15058J 26094.04894843 .00139464 00000+0 24688-2 0 9998 2 40972 64.7488 348.8182 0034224 64.6047 295.8629 15.48930524107502 PROPCUBE 3 1 40973U 15058K 26094.24187793 .00005341 00000+0 44768-3 0 9998 2 40973 64.7668 123.4730 0122701 89.3144 272.2027 14.93737060103752 BISONSAT 1 40974U 15058L 26094.25221395 .00027087 00000+0 13592-2 0 9998 2 40974 64.7611 52.3778 0078695 79.4937 281.5041 15.14529151104412 SNAP-3 JIMI 1 40975U 15058M 26094.27789485 .00010480 00000+0 72986-3 0 9992 2 40975 64.7639 93.4678 0104763 85.7814 275.5267 15.01464096103120 PROPCUBE 1 (FLORA) 1 40976U 15058N 26094.24936470 .00004423 00000+0 41819-3 0 9999 2 40976 64.7746 164.3125 0129296 89.9529 271.6398 14.88825056105251 SINOD-D 3 1 40977U 15058P 26094.26021112 .00005929 00000+0 50478-3 0 9993 2 40977 64.7717 146.5652 0117701 87.6729 273.7854 14.93456931103719 HORYU-4 1 41340U 16012D 26093.77934420 .00172453 00000+0 14462-2 0 9998 2 41340 30.9909 251.8841 0005899 28.3057 331.7917 15.68293238559040 RAVAN 1 41849U 16067B 26094.12475950 .00075212 00000+0 14054-2 0 9992 2 41849 97.9989 335.5076 0004169 251.6001 108.4795 15.48477393516213 CELTEE 1 1 41850U 16067C 26094.11379938 .00011102 00000+0 53449-3 0 9992 2 41850 98.0772 315.6275 0002251 108.3961 251.7517 15.18953324514638 OPTICUBE 04 1 41851U 16067D 26094.10134228 .00004926 00000+0 31220-3 0 9992 2 41851 98.0783 302.4994 0015983 13.8204 346.3458 15.09350689513997 AEROCUBE 8D 1 41852U 16067E 26094.15253882 .00014807 00000+0 62531-3 0 9994 2 41852 98.0787 318.7084 0004403 49.1804 310.9812 15.23371614514792 AEROCUBE 8C 1 41853U 16067F 26094.12340711 .00015389 00000+0 64526-3 0 9992 2 41853 98.0657 316.0021 0004456 330.9819 29.1168 15.23602568514783 CORVUS BC2 1 42846U 17042X 26094.24650904 .00006988 00000+0 48457-3 0 9990 2 42846 97.3993 258.5269 0013334 12.9969 347.1600 15.05833911475938 CORVUS BC1 1 42847U 17042Y 26094.18314428 .00005951 00000+0 41148-3 0 9991 2 42847 97.4026 259.2307 0011476 350.2945 9.8059 15.06020272475956 MAKERSAT 0 1 43016U 17073D 26094.10528964 .00037765 00000+0 10974-2 0 9998 2 43016 97.4728 336.1839 0114368 175.1072 185.1316 15.29018212455136 SIRION PATHFINDER-2 1 43759U 18099B 26094.10228335 .00010655 00000+0 59177-3 0 9998 2 43759 97.4330 144.9274 0008768 186.3036 173.8087 15.13866670401410 CORVUS BC4 1 43767U 18099K 26094.07640850 .00009823 00000+0 57678-3 0 9992 2 43767 97.4151 139.2273 0006954 253.1776 106.8692 15.11899242401209 M2 PATHFINDER 1 45727U 20037E 26094.08958772 .00005094 00000+0 36927-3 0 9991 2 45727 97.8153 284.4929 0012430 47.8519 312.3761 15.04346196314350 NETSAT-4 1 46504U 20068U 26094.24195010 .00030678 00000+0 73265-3 0 9997 2 46504 97.8634 96.6793 0004725 203.6215 156.4814 15.41462238304377 NETSAT-3 1 46505U 20068V 26093.99422882 .00033758 00000+0 84091-3 0 9990 2 46505 97.8677 94.7312 0003787 225.7962 134.2972 15.40166355304258 NETSAT-1 1 46506U 20068W 26093.95503218 .00025297 00000+0 79734-3 0 9997 2 46506 97.8752 89.8570 0003159 263.0775 97.0107 15.32881613303925 NETSAT-2 1 46507U 20068X 26093.91395104 .00038386 00000+0 87249-3 0 9990 2 46507 97.8646 95.9898 0002010 236.1467 123.9588 15.42910808304274 GREENCUBE (IO-117) 1 53109U 22080E 26090.98863878 -.00000003 00000+0 00000+0 0 9996 2 53109 70.1536 325.1039 0008975 306.3934 53.5898 6.42583190 87104 SITRO-AIS 5 (KATYS) 1 57176U 23091L 26094.22966929 .00022453 00000+0 82596-3 0 9995 2 57176 97.5124 157.4969 0011522 11.8720 348.2789 15.27825641153042 SITRO-AIS 6 (CHIRKIN) 1 57192U 23091AC 26094.24508010 .00012774 00000+0 51603-3 0 9998 2 57192 97.5131 156.9994 0012365 14.9617 345.1983 15.24828022153017 SITRO-AIS 8 (ANOKHIN) 1 57193U 23091AD 26094.23822957 .00024354 00000+0 83241-3 0 9997 2 57193 97.5118 158.8114 0010555 8.9604 351.1822 15.30223738153138 SITRO-AIS 7 (FARTUSHNIY) 1 57194U 23091AE 26094.23402073 .00011943 00000+0 48664-3 0 9991 2 57194 97.5129 156.8485 0012297 16.1329 344.0298 15.24554274153009 SITRO-AIS 10 (BURDAEV) 1 57199U 23091AK 26094.23642235 .00036102 00000+0 10303-2 0 9994 2 57199 97.5134 163.1503 0006006 347.7993 12.3104 15.35934628153405 SITRO-AIS 9 (SHCHUKIN) 1 57201U 23091AM 26094.24112633 .00032733 00000+0 94721-3 0 9996 2 57201 97.5133 162.9386 0006255 347.8596 12.2496 15.35518961153399 SITRO-AIS 12 (SMIRENNIY) 1 57204U 23091AQ 26094.24524539 .00034330 00000+0 98485-3 0 9997 2 57204 97.5145 163.3654 0005754 341.4992 18.6041 15.35783811153418 SITRO-AIS 11 (SHEFFER) 1 57208U 23091AU 26094.27764732 .00036260 00000+0 10275-2 0 9999 2 57208 97.5143 163.6021 0005708 340.0957 20.0063 15.36157544153438 SITRO-AIS 25 1 59066U 24039R 26094.26006038 .00010179 00000+0 80202-3 0 9992 2 59066 95.3928 184.3078 0144827 225.8668 133.0573 14.92890797113696 SITRO-AIS 26 1 59067U 24039S 26094.25168351 .00009738 00000+0 77072-3 0 9999 2 59067 95.3926 184.2145 0145192 226.4205 132.4895 14.92698126113680 SITRO-AIS 27 1 59068U 24039T 26094.30924441 .00009105 00000+0 71454-3 0 9992 2 59068 95.3927 184.4925 0144389 225.0208 133.9242 14.93099805113711 SITRO-AIS 28 1 59071U 24039U 26094.28840348 .00008863 00000+0 69531-3 0 9999 2 59071 95.3934 184.5213 0144190 224.9399 134.0084 14.93137895113711 GRBBETA 1 60237U 24128C 26094.27098939 .00006865 00000+0 46958-3 0 9992 2 60237 61.9882 115.4834 0049050 119.1000 241.5017 15.06060339 95131 OOV-CUBE (TUBSAT-30) 1 60240U 24128F 26094.25451486 .00003898 00000+0 29990-3 0 9994 2 60240 61.9933 123.3015 0052344 117.5940 243.0481 15.02418368 95009 ROBUSTA-3A (MEDITERRAN*) 1 60243U 24128J 26094.28635189 .00011354 00000+0 67704-3 0 9995 2 60243 61.9846 109.3530 0049505 112.8863 247.7469 15.10564648 95254 LASARSAT 1 62391U 24247Q 26094.03099426 .00055577 00000+0 12740-2 0 9998 2 62391 44.9765 317.4987 0005379 237.3439 122.6930 15.42003564 71856 CROCUBE 1 62394U 24247T 26094.04048777 .00060086 00000+0 13160-2 0 9993 2 62394 44.9737 315.7943 0004954 235.6859 124.3561 15.43330823 71879 FORESAIL-1 PRIME 1 66778U 25276DS 26094.25130966 .00009683 00000+0 47885-3 0 9999 2 66778 97.4237 168.9008 0002888 39.4110 320.7333 15.18026584 19184 KNACKSAT-2 1 67683U 98067XZ 26093.95420513 .00065956 00000+0 99573-3 0 9995 2 67683 51.6305 306.1177 0010514 279.0913 80.8888 15.54059237 8716